ECHOSTAR 18

Last updated on Sun Apr 27 2025 00:02:41 GMT+0000 (Coordinated Universal Time)

1 41592U 16039B 25116.01780792 -.00000279 00000+0 00000+0 0 9996 2 41592 0.0132 238.6101 0001351 148.2916 132.4077 1.00267648 32431
UTC large
Height (km)
Speed (km/s)
/
Latitude / Longitude
Inclination (degrees)
Orbital Period (minutes)
Azimuth
Elevation
Range (km)
Doppler Factor

Next 0 passes for location: London (51.5072 / 0.1276)

Sorry there are no passes over London.